Location: Joplin, MO
(37.0842°N, 94.5133°W)
Time: 20:51:24
(UTC+02:00)

Transit 2A Rocket - Pass Details

Date: 02 April 2023
Orbit: 584 x 914 km, 66.7° (Epoch: 06 June)

Event Time Altitude Azimuth Distance (km) Brightness Sun altitude
Rises 16:14:29 0° 171° (S) 3,187 8.5 25.3°
Reaches altitude 10° 16:17:11 10° 158° (SSE) 2,325 8.1 25.9°
Maximum altitude 16:21:25 24° 105° (ESE) 1,641 10.6 26.7°
Drops below altitude 10° 16:25:56 10° 54° (NE) 2,499 8.3 27.5°
Sets 16:28:55 0° 41° (NE) 3,483 8.7 28.1°
